Вернуться в каталог

SL-14 DEB

АктивенPO
NORAD 45655·DEBRIS·🇷🇺 Russia

Запущен Aug 15, 1991 с Plesetsk Cosmodrome

Loading…

Ближайшие Пролёты (ближайшие 24 часа)

TLE

СвежийSource: Space-Track

Эпоха: Sep 14, 2026, 01:06 UTC

1 45655U 91056CZ  26257.04589851 -.00000113  00000-0 -40356-3 0  9996
2 45655  82.5386 127.0551 0103415 223.1697 136.1275 12.99942283312385

Отслеживайте SL-14 DEB в реальном времени с AllMySat

Download on the App Store